[[{"header":{"parameterUnit":"m.s-1","parameterCategory":1,"la1":30.2992,"la2":30.254,"lo1":-89.0895,"lo2":-89.0443,"dy":0.0025,"dx":0.0025,"nx":19,"ny":19,"refTime":"2026-03-09T09:00:00:Z","depth":0,"parameterNumber":2,"parameterNumberName":"U-component_of_WINDS"},"data":[0,0,0,-2.0981,-2.0981,-2.0957,-2.0957,-2.0936,-2.0936,0,0,0,0,0,0,0,0,0,0,0,-2.0994,-2.0994,-2.0981,-2.0981,-2.0957,-2.0957,-2.0936,-2.0936,0,0,0,0,0,0,0,0,0,0,0,-2.0994,-2.0994,-2.0994,-2.0981,-2.0957,-2.0956,-2.0936,-2.0951,0,0,0,0,0,0,0,0,0,0,-2.0972,-2.099,-2.0994,-2.0994,-2.098,-2.0957,-2.0956,-2.0951,-2.095,-2.0952,0,-2.0954,0,-2.0945,-2.0936,-2.0936,0,0,0,-2.0976,-2.0991,-2.0979,-2.0994,-2.098,-2.0957,-2.0966,-2.0951,-2.0949,-2.095,-2.0954,-2.0953,-2.0945,-2.0936,-2.0936,-2.0958,-2.0959,0,0,-2.0978,-2.0993,-2.098,-2.0979,-2.0982,-2.0967,-2.0966,-2.0949,-2.0955,-2.0954,-2.0952,-2.0944,-2.0936,-2.0935,-2.0958,-2.0958,0,0,0,-2.0984,-2.0994,-2.0982,-2.098,-2.0975,-2.0966,-2.0965,-2.0956,-2.095,-2.0952,-2.0944,-2.0935,-2.0935,-2.0958,-2.0958,-2.0987,0,0,0,-2.0985,-2.0998,-2.0983,-2.0992,-2.0975,-2.0965,-2.0971,-2.0952,-2.0949,-2.0944,-2.0935,-2.0935,-2.0957,-2.0958,-2.0986,-2.0998,0,0,0,-2.0993,-2.0999,-2.0997,-2.0993,-2.0983,-2.0964,-2.0958,-2.0951,-2.0945,-2.0936,-2.0935,-2.0957,-2.0958,-2.0984,-2.0996,-2.1008,0,0,0,-2.1007,-2.1023,-2.0998,-2.1013,-2.0983,-2.0983,-2.0958,-2.0957,-2.0953,-2.0935,-2.0957,-2.0958,-2.0984,-2.0994,-2.1007,-2.1021,-2.1028,0,0,-2.1036,-2.1027,-2.1035,-2.1012,-2.1019,-2.0985,-2.0997,-2.0979,-2.0965,-2.0962,-2.0962,-2.0986,-2.0996,-2.1008,-2.1066,-2.1072,0,0,0,-2.105,-2.1056,-2.1054,-2.1051,-2.1037,-2.1027,-2.1006,-2.0999,-2.0995,-2.0966,-2.0994,-2.0999,-2.1006,-2.1011,-2.1017,-2.1021,-2.0962,-2.0962,-2.0961,-2.1112,-2.1093,-2.1105,-2.1083,-2.108,-2.1058,-2.1054,-2.1042,-2.1023,-2.103,-2.1029,-2.1066,-2.1073,-2.1077,-2.1082,-2.1035,-2.1035,-2.1035,-2.1036,-2.1152,-2.1157,-2.1133,-2.1136,-2.1116,-2.1118,-2.1098,-2.1086,-2.1085,-2.1065,-2.107,-2.1049,-2.1084,-2.1088,-2.1038,-2.1037,-2.1037,-2.1037,-2.1037,-2.119,-2.1189,-2.1181,-2.1174,-2.1171,-2.1149,-2.115,-2.1132,-2.1115,-2.112,-2.1117,-2.1116,-2.1113,-2.112,-2.112,-2.112,-2.112,-2.1121,-2.1121,-2.1232,-2.1222,-2.1224,-2.1212,-2.1208,-2.12,-2.1179,-2.1175,-2.1165,-2.1152,-2.1152,-2.1133,-2.1092,-2.1081,-2.1122,-2.1122,-2.1122,-2.1122,-2.1122,-2.1278,-2.1265,-2.1269,-2.1264,-2.1249,-2.1248,-2.1225,-2.1218,-2.1212,-2.1213,-2.1194,-2.1166,-2.1156,-2.1152,-2.1143,-2.1198,-2.1198,-2.1198,-2.1198,-2.1309,-2.1303,-2.1303,-2.1297,-2.129,-2.127,-2.1276,-2.1261,-2.1243,-2.1238,-2.1228,-2.1215,-2.1212,-2.1203,-2.1198,-2.1189,-2.1255,-2.1255,-2.1255,-2.1337,-2.1329,-2.1336,-2.1318,-2.1305,-2.1295,-2.13,-2.1295,-2.1272,-2.1257,-2.1234,-2.1231,-2.121,-2.1205,-2.1188,-2.118,-2.1164,0,0]},{"header":{"parameterUnit":"m.s-1","parameterCategory":1,"la1":30.2992,"la2":30.254,"lo1":-89.0895,"lo2":-89.0443,"dy":0.0025,"dx":0.0025,"nx":19,"ny":19,"refTime":"2026-03-09T09:00:00:Z","depth":0,"parameterNumber":3,"parameterNumberName":"V-component_of_WINDS"},"data":[0,0,0,2.6676,2.6678,2.6764,2.6765,2.6859,2.686,0,0,0,0,0,0,0,0,0,0,0,2.6637,2.6638,2.6676,2.6678,2.6764,2.6765,2.6859,2.686,0,0,0,0,0,0,0,0,0,0,0,2.6637,2.6638,2.6638,2.6678,2.6764,2.6765,2.6859,2.68,0,0,0,0,0,0,0,0,0,0,2.6719,2.667,2.6638,2.6638,2.6678,2.6764,2.6765,2.6797,2.6804,2.6812,0,2.6813,0,2.6838,2.6865,2.6865,0,0,0,2.6688,2.6664,2.6699,2.6638,2.6679,2.6764,2.6728,2.6801,2.6808,2.682,2.6815,2.6819,2.6839,2.6865,2.6866,2.6874,2.6874,0,0,2.6683,2.6647,2.6694,2.6703,2.6686,2.6725,2.6731,2.6806,2.6798,2.6815,2.6821,2.6841,2.6866,2.6866,2.6875,2.6874,0,0,0,2.6663,2.6643,2.6676,2.6699,2.6715,2.6727,2.6734,2.6795,2.6809,2.6823,2.6842,2.6866,2.6867,2.6875,2.6874,2.6817,0,0,0,2.666,2.6631,2.6674,2.6652,2.6714,2.6756,2.6721,2.6804,2.6814,2.6841,2.6866,2.6868,2.6876,2.6875,2.6819,2.6796,0,0,0,2.6636,2.6628,2.6636,2.665,2.6686,2.6755,2.6774,2.6807,2.6825,2.6865,2.6868,2.6876,2.6875,2.6822,2.68,2.6789,0,0,0,2.6601,2.6583,2.6634,2.6623,2.6684,2.6718,2.6774,2.6801,2.6829,2.6867,2.6876,2.6874,2.6823,2.6803,2.6791,2.6773,2.6761,0,0,2.6558,2.6577,2.6573,2.6622,2.6636,2.6708,2.6716,2.6777,2.6815,2.6853,2.6854,2.6819,2.68,2.6789,2.6709,2.6699,0,0,0,2.6548,2.6545,2.6557,2.658,2.6625,2.6663,2.6727,2.675,2.6784,2.6826,2.6812,2.6802,2.6797,2.6791,2.6783,2.6782,2.6869,2.6869,2.687,2.6435,2.6485,2.6483,2.6543,2.6566,2.6632,2.6656,2.6699,2.6743,2.6739,2.675,2.6695,2.6686,2.668,2.6679,2.6744,2.6744,2.6744,2.6744,2.6379,2.6384,2.6442,2.6461,2.6515,2.6533,2.6597,2.6628,2.6655,2.669,2.6688,2.6723,2.6668,2.667,2.674,2.674,2.6741,2.6741,2.6742,2.6312,2.6323,2.635,2.6392,2.6418,2.6481,2.6504,2.6552,2.6598,2.6596,2.6615,2.6617,2.6625,2.6602,2.6601,2.6601,2.6601,2.6601,2.6601,2.6232,2.6265,2.6277,2.6324,2.6347,2.6384,2.6452,2.6477,2.6517,2.6551,2.6552,2.6597,2.6653,2.6666,2.6598,2.6599,2.6599,2.6599,2.6599,2.6158,2.6183,2.6201,2.6224,2.6286,2.6311,2.6372,2.6419,2.6447,2.6457,2.6504,2.6537,2.656,2.6566,2.6578,2.6491,2.6491,2.6491,2.6491,2.6102,2.6118,2.6149,2.6183,2.6222,2.628,2.6303,2.6357,2.6417,2.6438,2.6458,2.6478,2.6482,2.6503,2.6511,2.6523,2.6424,2.6424,2.6424,2.6061,2.6083,2.6091,2.6149,2.6201,2.6246,2.627,2.631,2.6384,2.6422,2.6457,2.646,2.6492,2.6499,2.6538,2.655,2.6573,0,0]}]]